Vorticity
3 10 -0 7 6 7 5 2 2 5 5 3 3 5 5 3 5 5 5 3 4 3 4 5 6 7 7 7 6 6 8 9 8 8 6 6 5 5 5 6 7 6 6
7 2 14 0 9 6 7 4 2 5 6 6 8 5 9 8 7 6 7 5 4 5 7 6 5 3 7 7 7 6 5 5 5 7 8 7 5 4 6 5 8 11 7
22 4 -3 12 -4 2 9 7 5 5 7 6 6 6 6 6 6 5 3 4 6 6 5 5 7 6 4 7 9 5 6 6 9 13 10 10 7 8 8 6 7 8 9
9 16 15 -2 7 11 -6 -10 -1 6 7 7 6 6 7 6 5 3 3 4 5 5 3 5 5 7 8 7 6 4 8 7 4 4 6 4 6 6 2 2 2 9 6
7 12 14 15 7 2 8 14 5 6 2 5 5 7 7 6 5 4 4 5 5 5 4 5 4 4 7 5 8 6 9 7 7 9 10 4 12 9 6 8 4 9 8
6 8 18 14 7 8 1 7 10 6 8 3 6 7 8 6 4 4 4 4 4 3 3 3 4 5 5 6 6 8 8 8 8 8 8 8 7 6 8 8 6 4 6
4 8 13 14 14 15 -1 0 6 12 8 6 7 7 6 6 4 5 6 5 5 4 4 5 6 5 7 8 8 9 9 9 9 10 12 4 7 8 8 9 9 8 6
5 8 2 6 15 11 23 -1 1 8 7 10 10 9 8 7 6 6 6 8 7 7 10 10 11 12 8 9 10 11 10 7 6 6 11 8 9 11 7 6 9 11 10
4 5 9 4 20 9 21 17 10 10 12 11 10 8 8 7 7 6 6 6 8 10 11 12 11 10 13 12 9 7 6 9 12 8 6 5 7 12 10 17 17 12 17
7 9 8 4 8 7 13 10 8 12 11 10 10 9 8 7 7 9 9 8 9 11 12 11 10 10 9 7 6 14 13 5 8 10 8 13 15 14 15 16 18 16 10
6 11 9 1 -4 6 6 9 7 9 10 9 8 9 9 9 8 7 8 8 8 10 10 9 9 8 6 11 22 3 8 10 6 12 28 13 27 23 17 17 16 11 11
13 12 16 8 7 9 7 12 2 5 8 8 8 7 7 7 8 8 9 12 13 10 8 8 5 9 21 12 1 7 7 4 8 30 16 6 33 52 27 21 10 25 23
7 8 10 11 9 7 2 5 8 8 8 7 8 8 8 9 11 13 13 10 10 9 7 7 16 14 9 4 4 2 8 8 16 19 -2 9 11 21 28 20 20 21 27
7 7 6 6 6 7 6 7 7 5 9 11 13 14 15 16 13 11 9 8 8 6 14 16 8 6 9 7 2 3 9 12 18 12 6 21 7 20 30 30 19 14 21
12 11 9 8 7 10 12 13 16 17 14 13 13 12 11 12 10 9 10 7 15 16 15 11 2 12 10 -3 6 9 13 12 23 -3 7 15 6 13 5 11 21 12 14
17 13 12 10 10 13 14 13 13 15 15 12 13 13 9 10 11 8 13 15 20 14 6 10 6 14 8 4 9 7 14 12 13 17 9 1 9 4 13 7 4 3 12
11 4 11 11 2 15 15 15 14 13 13 9 8 9 11 9 12 14 15 13 6 8 -2 11 7 0 6 9 10 11 11 8 5 14 18 15 15 8 2 12 17 15 13
15 15 17 16 19 12 11 11 10 11 10 10 10 10 10 14 13 10 14 -2 3 17 10 7 7 -1 10 10 10 9 9 10 10 11 7 9 5 6 6 9 10 11 11
9 11 11 13 14 14 13 12 12 12 11 9 10 8 16 11 7 10 11 10 12 2 8 9 2 11 9 10 9 12 12 6 7 11 8 11 12 11 9 9 10 9 9
9 10 10 10 9 9 10 10 10 11 12 14 13 18 9 9 7 8 8 7 2 9 5 6 10 10 10 13 10 8 5 12 13 15 10 8 10 12 10 9 8 9 9
11 11 11 11 13 13 13 12 12 10 15 18 18 10 9 12 11 10 4 -2 2 9 9 13 11 13 9 8 8 7 13 11 12 7 9 9 8 7 6 9 7 10 9
14 12 12 11 12 12 7 5 12 9 16 12 11 9 8 12 10 10 4 6 12 16 10 12 9 10 11 7 8 12 11 12 6 8 8 7 7 10 8 10 9 11 10
10 10 11 12 9 10 10 -2 1 14 12 10 5 6 11 7 4 11 13 14 13 8 12 6 11 9 6 8 13 9 13 6 8 8 7 9 11 9 8 9 9 10 9
11 11 11 10 10 9 14 6 7 14 12 10 9 11 10 11 10 12 12 10 11 9 7 11 10 8 10 13 8 12 7 7 6 7 8 9 9 9 9 10 12 10 10
13 12 11 10 10 12 12 13 13 12 11 13 15 12 10 8 10 10 11 14 6 7 11 12 5 7 11 11 11 8 7 6 6 7 10 10 10 8 9 11 11 9 7
10 10 11 9 10 9 10 9 9 10 12 9 4 8 13 14 12 14 15 5 8 5 10 9 6 8 11 10 9 7 7 6 7 9 8 8 10 11 11 12 10 8 13
Height
5756 5762 5768 5776 5779 5784 5791 5798 5802 5803 5806 5810 5813 5816 5818 5820 5821 5823 5825 5827 5826 5825 5826 5826 5826 5825 5824 5824 5823 5822 5821 5820 5819 5817 5816 5815 5815 5813 5812 5810 5810 5809 5806
5748 5755 5761 5766 5773 5779 5783 5789 5796 5798 5800 5802 5805 5808 5810 5812 5814 5816 5819 5818 5817 5818 5819 5819 5818 5817 5816 5816 5815 5814 5812 5811 5809 5807 5805 5805 5805 5804 5801 5800 5799 5797 5797
5740 5746 5753 5759 5765 5770 5775 5780 5786 5792 5794 5796 5797 5800 5802 5805 5807 5809 5809 5809 5810 5811 5811 5811 5811 5809 5808 5808 5806 5805 5804 5802 5800 5798 5796 5794 5795 5793 5791 5789 5788 5786 5784
5733 5738 5745 5753 5760 5764 5769 5774 5777 5782 5787 5789 5790 5791 5794 5796 5798 5799 5800 5801 5801 5802 5802 5803 5803 5801 5800 5799 5797 5796 5795 5793 5791 5788 5788 5784 5782 5781 5781 5779 5777 5774 5772
5724 5733 5739 5747 5752 5758 5763 5767 5769 5769 5771 5778 5783 5784 5786 5788 5789 5790 5791 5792 5792 5793 5793 5793 5791 5792 5791 5789 5788 5786 5785 5783 5781 5778 5776 5773 5771 5768 5767 5766 5764 5761 5759
5717 5725 5732 5737 5744 5749 5753 5757 5761 5764 5767 5770 5773 5776 5779 5780 5782 5783 5785 5785 5785 5784 5782 5781 5781 5781 5780 5779 5778 5776 5774 5772 5770 5769 5765 5762 5759 5756 5753 5749 5748 5745 5743
5710 5716 5722 5727 5732 5738 5744 5749 5753 5756 5759 5761 5763 5765 5768 5772 5774 5776 5778 5778 5778 5778 5775 5773 5771 5769 5768 5766 5765 5764 5764 5762 5760 5757 5754 5751 5747 5743 5740 5734 5731 5729 5727
5699 5706 5712 5718 5723 5728 5734 5739 5744 5746 5749 5752 5755 5757 5759 5761 5764 5766 5767 5768 5770 5769 5767 5765 5763 5762 5758 5757 5755 5754 5753 5751 5748 5745 5742 5738 5734 5729 5724 5720 5715 5712 5711
5691 5697 5703 5708 5713 5718 5723 5729 5735 5738 5741 5743 5746 5749 5751 5753 5754 5755 5756 5756 5757 5757 5756 5754 5753 5752 5751 5749 5747 5745 5743 5740 5737 5733 5730 5725 5719 5713 5707 5703 5701 5697 5695
5683 5689 5694 5700 5704 5710 5715 5721 5725 5729 5732 5735 5738 5740 5742 5744 5745 5746 5746 5746 5746 5746 5745 5744 5744 5742 5741 5739 5738 5737 5734 5731 5727 5722 5716 5710 5704 5697 5691 5687 5684 5682 5680
5674 5681 5687 5693 5697 5702 5707 5712 5716 5720 5722 5726 5728 5731 5733 5735 5735 5736 5737 5736 5736 5736 5735 5735 5734 5733 5733 5731 5730 5728 5725 5721 5715 5710 5703 5697 5687 5679 5675 5673 5671 5669 5667
5668 5673 5679 5685 5689 5694 5699 5703 5707 5710 5713 5716 5719 5721 5723 5725 5726 5726 5727 5727 5727 5727 5727 5726 5725 5724 5723 5722 5721 5718 5714 5709 5704 5697 5691 5682 5672 5664 5661 5661 5660 5658 5656
5661 5667 5672 5677 5682 5686 5690 5694 5698 5701 5704 5707 5710 5711 5712 5714 5715 5716 5717 5718 5718 5718 5718 5717 5716 5716 5715 5714 5712 5708 5704 5699 5693 5686 5679 5672 5664 5656 5652 5650 5649 5647 5645
5654 5660 5665 5669 5673 5678 5681 5685 5689 5692 5695 5697 5700 5701 5702 5704 5706 5707 5708 5709 5710 5710 5709 5709 5709 5708 5707 5705 5703 5699 5694 5689 5682 5676 5670 5663 5658 5653 5647 5643 5640 5639 5636
5649 5653 5657 5662 5666 5669 5673 5676 5679 5682 5685 5688 5690 5692 5694 5696 5698 5700 5700 5701 5700 5700 5701 5701 5701 5700 5698 5696 5693 5690 5685 5679 5673 5668 5663 5657 5652 5647 5643 5638 5634 5632 5630
5643 5647 5651 5654 5658 5661 5665 5668 5671 5674 5677 5680 5682 5684 5686 5688 5690 5690 5691 5691 5692 5692 5693 5694 5693 5691 5690 5687 5684 5680 5676 5670 5665 5660 5655 5650 5646 5642 5637 5632 5628 5626 5623
5637 5641 5645 5648 5651 5655 5658 5661 5664 5667 5670 5672 5675 5676 5678 5679 5681 5682 5683 5684 5685 5685 5686 5685 5684 5683 5681 5678 5674 5671 5667 5662 5657 5653 5648 5643 5639 5635 5631 5626 5624 5620 5617
5633 5635 5638 5642 5646 5649 5652 5654 5657 5660 5662 5664 5666 5668 5670 5671 5672 5674 5676 5677 5678 5678 5677 5677 5676 5674 5671 5669 5666 5662 5658 5654 5650 5646 5641 5637 5633 5629 5625 5621 5617 5614 5610
5629 5631 5634 5637 5640 5643 5645 5648 5650 5652 5655 5657 5659 5661 5663 5664 5666 5668 5669 5670 5670 5670 5670 5669 5667 5665 5663 5660 5657 5654 5651 5647 5642 5638 5634 5630 5626 5623 5619 5615 5611 5607 5603
5624 5627 5629 5632 5634 5637 5639 5641 5644 5646 5648 5650 5652 5654 5656 5658 5659 5661 5662 5662 5662 5662 5662 5661 5659 5657 5655 5653 5650 5647 5644 5640 5635 5631 5628 5624 5620 5616 5612 5608 5604 5599 5595
5619 5622 5624 5627 5629 5632 5634 5636 5639 5641 5642 5643 5645 5648 5650 5651 5653 5654 5655 5654 5655 5655 5654 5653 5652 5649 5648 5646 5643 5639 5636 5632 5629 5626 5622 5618 5614 5609 5605 5600 5595 5590 5585
5615 5617 5619 5622 5624 5627 5630 5632 5633 5634 5636 5638 5640 5642 5644 5645 5646 5647 5647 5647 5648 5647 5647 5645 5644 5643 5641 5638 5636 5632 5629 5625 5623 5619 5615 5611 5606 5601 5597 5592 5587 5581 5576
5611 5613 5615 5617 5620 5622 5625 5626 5628 5630 5631 5633 5635 5636 5638 5639 5640 5640 5640 5641 5641 5640 5639 5639 5637 5636 5634 5631 5628 5625 5622 5620 5617 5612 5608 5604 5599 5594 5588 5583 5577 5572 5566
5608 5610 5611 5613 5615 5617 5619 5622 5624 5626 5626 5628 5629 5631 5632 5633 5634 5634 5634 5634 5634 5633 5633 5632 5631 5629 5626 5624 5621 5618 5616 5612 5609 5605 5601 5596 5590 5585 5579 5574 5568 5562 5556
5604 5606 5607 5608 5610 5612 5614 5616 5618 5620 5621 5623 5625 5626 5627 5627 5628 5628 5628 5628 5628 5628 5627 5626 5624 5622 5619 5617 5614 5611 5608 5605 5601 5597 5593 5587 5582 5576 5571 5564 5558 5552 5546
5600 5601 5602 5604 5606 5608 5610 5611 5613 5615 5617 5618 5619 5620 5621 5621 5622 5622 5622 5623 5623 5622 5621 5619 5618 5615 5613 5610 5607 5605 5601 5598 5594 5590 5585 5579 5573 5567 5561 5555 5549 5543 5536